Погода в Зашейке

Россия / Республика Карелия     66°15′10″N   31°06′29″E
В апреле 2022 года жителям России запретили посещать сайт meteo.paraplan.net по решению Генеральной прокуратуры. Аудитория сайта уменьшилась в 10 раз. Владельцы сайта не видят смысла в поддержке погодного сервера в таких условиях. Сайт будет закрыт в октябре.
темп.,
°C
ветер,
м/с
пор.,
м/с
влажн.,
%
обл.,
%
осадки,
мм/ч
давл.,
гПа
погр.,
м
30 сентября, пт
пт3000:00+3в4775100 0.0 1013542
03:00+2всв3799100 0.5 1012282
06:00+2в4798100 0.6 1011337
09:00+2в4698100 1.1 1011363
12:00+3вюв338092 0.2 1010715
15:00+4юв2277100 0.3 1010641
18:00+3юв2387100 0.1 1010427
21:00+3ююв2395100 0.4 1010352
1 октября, сб
сб100:00+3ююз1297100 0.3 1010369
03:00+2зсз1295100 0.4 1009354
06:00+2з1297100 0.2 1009268
09:00+3юз2491100 0.4 1009558
12:00+3зюз358694 0.3 1009579
15:00+4з3573100 0.4 1009727
18:00+4з3579100 0.1 1009393
21:00+3з248091 0.1 1009247
2 октября, вс
вс200:00+2зсз237995 0.0 1010138
03:00+3ююз2273100 0.0 1009150
06:00+3ю238542 0.0 1009168
09:00+4ю358888 0.0 1009339
12:00+4юв3592100 0.6 1009357
15:00+5ююв3593100 1.5 1008374
18:00+5ююз1295100 0.9 1008120
21:00+5сз0195100 1.1 100977
3 октября, пн
пн300:00+6зюз1195100 0.1 100959
03:00+6юз119295 0.1 101072
06:00+6ююз229068 0.0 101172
09:00+6юз228816 0.0 1012100
12:00+8ююз228032 0.0 1013292
15:00+9ю22795 0.0 1014309
18:00+7юв128652 0.0 1014123
21:00+6в128930 0.0 1015102
4 октября, вт
вт400:00+5св239382 0.0 101599
03:00+5св3596100 0.0 1015195
06:00+5св4895100 0.0 1014361
09:00+5св61287100 0.0 1013693
12:00+5св71380100 0.1 1012794
15:00+4св81390100 1.5 1010812
18:00+4св81397100 3.3 1009972
21:00+5св71296100 4.7 1008700